Location: Monroe
(41.9160°N, 83.3980°W)
Time: 03:42:21
(UTC-05:00)

Amateur Radio Satellites - All Passes

Search period start: 20 December 2014 03:12
Search period end: 21 December 2014 03:12
Location: Monroe, 41.9160°N, 83.3980°W

Satellite Date Start Highest point End Downlink Frequencies (MHz)
Time Altitude Azimuth
VERMONT LUNAR 20 Dec 03:48:35 03:51:39 28° 156° (SSE) 03:54:42 437.305
Oscar 19 20 Dec 03:54:44 03:57:15 14° 301° (WNW) 03:59:45 437.125/150
Gurwin Techsat 1B 20 Dec 03:57:32 04:02:37 48° 290° (WNW) 04:07:41 435.225
PHONESAT 2.4 20 Dec 03:59:00 04:01:57 24° 154° (SSE) 04:04:55 2401.200-2431.200
AIST 1 20 Dec 03:59:03 04:03:19 65° 81° (E) 04:07:32
MOZHAYETS 4 20 Dec 04:05:16 04:09:32 37° 70° (ENE) 04:13:48
ITAMSAT 1 20 Dec 04:07:27 04:11:37 25° 295° (WNW) 04:15:47 435.822/435.867
HORYU 2 20 Dec 04:22:46 04:27:13 57° 287° (WNW) 04:31:37 437.375
GONETS M04 20 Dec 04:44:20 04:50:50 24° 80° (E) 04:57:20
AO-7 20 Dec 04:50:16 04:58:39 69° 105° (ESE) 05:06:57 29.400- 29.500
SO-50 20 Dec 04:58:38 05:02:05 19° 40° (NE) 05:05:34 436.795
PRISM 20 Dec 05:05:47 05:09:13 25° 67° (ENE) 05:12:39 437.425
STRAND 1 20 Dec 05:21:29 05:24:58 19° 62° (ENE) 05:28:27 437.568
VERMONT LUNAR 20 Dec 05:26:11 05:29:41 65° 173° (S) 05:33:12 437.305
JAS-2 20 Dec 05:26:21 05:31:54 53° 99° (E) 05:37:00 435.910
CUBESAT XI-V 20 Dec 05:27:20 05:30:47 21° 66° (ENE) 05:34:15 437.345
PHONESAT 2.4 20 Dec 05:36:43 05:40:18 61° 170° (S) 05:43:53 2401.200-2431.200
AIST 1 20 Dec 05:40:12 05:40:20 10° 277° (W) 05:40:28
MOZHAYETS 4 20 Dec 05:43:11 05:46:50 23° 266° (W) 05:50:31
CUTE-I 20 Dec 05:51:29 05:55:11 19° 92° (E) 05:58:52 437.470
GONETS M04 20 Dec 06:37:52 06:46:42 75° 279° (W) 06:55:35
SO-50 20 Dec 06:38:17 06:43:11 76° 239° (WSW) 06:48:05 436.795
PRISM 20 Dec 06:40:56 06:44:38 29° 263° (W) 06:48:21 437.425
AO-7 20 Dec 06:43:54 06:50:47 30° 305° (NW) 06:57:38 29.400- 29.500
Cubesat XI-IV 20 Dec 06:56:49 07:02:09 77° 103° (ESE) 07:07:28 437.490
STRAND 1 20 Dec 06:58:41 07:03:42 57° 259° (W) 07:08:45 437.568
CUBESAT XI-V 20 Dec 07:03:30 07:07:56 42° 262° (W) 07:12:23 437.345
VERMONT LUNAR 20 Dec 07:04:26 07:07:55 61° 190° (S) 07:11:24 437.305
JAS-2 20 Dec 07:12:23 07:16:31 21° 300° (WNW) 07:20:26 435.910
PHONESAT 2.4 20 Dec 07:15:18 07:18:54 66° 187° (S) 07:22:30 2401.200-2431.200
CUTE-I 20 Dec 07:30:24 07:35:36 55° 289° (WNW) 07:40:46 437.470
MaSat-1 20 Dec 08:32:50 08:33:05 10° 108° (ESE) 08:33:21 437.345
Cubesat XI-IV 20 Dec 08:38:36 08:41:35 15° 301° (WNW) 08:44:34 437.490
GONETS M04 20 Dec 08:40:20 08:45:14 16° 302° (WNW) 08:50:10
DOVE 4 20 Dec 08:40:39 08:43:11 14° 91° (E) 08:45:45 437.250
VERMONT LUNAR 20 Dec 08:43:02 08:45:55 23° 206° (SSW) 08:48:47 437.305
HO-68 20 Dec 08:52:49 08:59:23 38° 98° (E) 09:05:53 435.675
PHONESAT 2.4 20 Dec 08:54:09 08:57:19 29° 204° (SSW) 09:00:29 2401.200-2431.200
AAUSAT CUBESAT 2 20 Dec 08:58:18 09:01:27 20° 93° (E) 09:04:35 437.432
CANX-2 20 Dec 09:09:20 09:13:31 46° 99° (E) 09:17:39 2200.000
CINEMA 3 20 Dec 09:09:25 09:12:26 17° 92° (E) 09:15:31 145.822/145.860
ANTELSAT 20 Dec 09:10:39 09:13:09 15° 62° (ENE) 09:15:41 437.575/2403.000
BRITE-PL 20 Dec 09:19:54 09:24:33 63° 101° (E) 09:29:35 437.365/2234.400
QB50P1 20 Dec 09:24:35 09:26:28 13° 62° (ENE) 09:28:22 145.935-145.965
COMPASS 1 20 Dec 09:32:30 09:36:42 55° 100° (E) 09:40:52 437.405
UWE-3 20 Dec 09:35:29 09:38:15 16° 91° (E) 09:41:01 435.000/436.395/437.385
O/OREOS (USA 219) 20 Dec 09:36:12 09:38:27 14° 51° (NE) 09:40:43 437.305
FUNcube-1 20 Dec 09:36:32 09:38:37 13° 90° (E) 09:40:42 145.935
SEEDS 20 Dec 09:37:20 09:41:39 75° 102° (ESE) 09:45:55 437.485
CUTE 1.7 + AOD 2 20 Dec 09:40:08 09:44:29 87° 283° (WNW) 09:48:47 437.475
CUSAT 1 20 Dec 09:43:38 09:47:00 39° 91° (E) 09:51:24 437.405
TIGRISAT 20 Dec 09:44:51 09:48:42 32° 69° (ENE) 09:52:39 435.000
GOMX 1 20 Dec 09:48:57 09:53:43 89° 104° (ESE) 09:58:48 467.674
POPSAT HIP 1 20 Dec 09:51:28 09:54:52 24° 68° (ENE) 09:58:16 437.405
DX 1 20 Dec 09:51:55 09:55:41 28° 96° (E) 09:59:26 434.975-435.025
DELFI C3 20 Dec 09:52:09 09:55:52 32° 97° (E) 09:59:33 145.870
MaSat-1 20 Dec 10:04:41 10:06:14 16° 302° (WNW) 10:07:46 437.345
HUMSAT D 20 Dec 10:13:03 10:16:03 18° 93° (E) 10:19:03 437.325/437.525
UNISAT 6 20 Dec 10:13:12 10:17:31 66° 74° (ENE) 10:21:58 437.425
Oscar 11 20 Dec 10:14:50 10:19:13 71° 102° (ESE) 10:23:33 145.826/435.025
DOVE 4 20 Dec 10:16:33 10:21:16 66° 285° (WNW) 10:26:15 437.250
DUCHIFAT 1 20 Dec 10:18:57 10:22:59 48° 72° (ENE) 10:27:02 145.980
BUGSAT 1 20 Dec 10:20:20 10:24:09 39° 71° (ENE) 10:27:57 437.445
UKube-1 20 Dec 10:23:07 10:27:25 61° 102° (ESE) 10:31:41 .
CUBEBUG 2 20 Dec 10:31:22 10:36:00 70° 102° (ESE) 10:40:43 437.445
QB50P2 20 Dec 10:32:00 10:36:12 70° 75° (ENE) 10:40:25 145.880/145.840
DANDE 20 Dec 10:33:11 10:36:35 65° 283° (WNW) 10:41:11 436.750
AAUSAT CUBESAT 2 20 Dec 10:33:21 10:37:13 35° 289° (WNW) 10:41:03 437.432
HO-68 20 Dec 10:40:28 10:47:07 43° 296° (WNW) 10:53:43 435.675
POLYITAN 1 20 Dec 10:40:40 10:44:53 87° 77° (ENE) 10:49:07 437.675
RS-15 20 Dec 10:42:53 10:50:51 24° 101° (ESE) 10:58:46 29.354- 29.394
NANOSAT C BR1 20 Dec 10:43:17 10:47:29 88° 257° (WSW) 10:51:43 145.865
ZACube-1 20 Dec 10:43:55 10:48:27 69° 101° (ESE) 10:53:01 437.345
VELOX 1 20 Dec 10:44:37 10:48:41 35° 98° (E) 10:52:44 145.980
ANTELSAT 20 Dec 10:45:11 10:49:27 56° 260° (W) 10:53:52 437.575/2403.000
CINEMA 3 20 Dec 10:45:17 10:49:54 55° 287° (WNW) 10:54:40 145.822/145.860
CANX-2 20 Dec 10:46:18 10:49:05 17° 295° (WNW) 10:51:52 2200.000
ESTCUBE 1 20 Dec 10:46:39 10:49:20 16° 91° (E) 10:52:01 437.505/2401.250
YUBILEINY 20 Dec 10:53:03 11:01:25 49° 75° (ENE) 11:09:44 435.215
QB50P1 20 Dec 10:57:42 11:01:51 60° 259° (W) 11:06:02 145.935-145.965
BRITE-PL 20 Dec 10:59:59 11:02:40 15° 296° (WNW) 11:05:28 437.365/2234.400
COMPASS 1 20 Dec 11:09:42 11:11:58 14° 297° (WNW) 11:14:13 437.405
UWE-3 20 Dec 11:10:35 11:15:04 54° 287° (WNW) 11:19:36 435.000/436.395/437.385
FUNcube-1 20 Dec 11:10:52 11:15:20 63° 286° (WNW) 11:19:52 145.935
O/OREOS (USA 219) 20 Dec 11:13:53 11:18:24 73° 250° (WSW) 11:22:54 437.305
SEEDS 20 Dec 11:15:42 11:16:51 11° 299° (WNW) 11:18:00 437.485
TIGRISAT 20 Dec 11:22:00 11:25:29 23° 266° (W) 11:29:03 435.000
POPSAT HIP 1 20 Dec 11:27:00 11:30:39 29° 264° (W) 11:34:19 437.405
AISAT 20 Dec 11:27:20 11:31:47 77° 285° (WNW) 11:36:12 437.250
DELFI C3 20 Dec 11:27:49 11:30:57 21° 293° (WNW) 11:34:04 145.870
CUSAT 1 20 Dec 11:28:12 11:30:38 15° 300° (WNW) 11:33:28 437.405
DX 1 20 Dec 11:28:12 11:31:50 26° 293° (WNW) 11:35:27 434.975-435.025
50 SAT 20 Dec 11:28:37 11:32:47 81° 284° (WNW) 11:36:56 437.505
GOMX 1 20 Dec 11:29:49 11:31:14 11° 298° (WNW) 11:32:40 467.674
CUBEBUG 1 20 Dec 11:34:50 11:39:02 47° 99° (E) 11:43:12 437.445
HUMSAT D 20 Dec 11:47:57 11:52:01 40° 288° (WNW) 11:56:05 437.325/437.525
Oscar 11 20 Dec 11:53:09 11:54:47 12° 298° (WNW) 11:56:25 145.826/435.025
UNISAT 6 20 Dec 11:53:23 11:54:48 11° 271° (W) 11:56:14 437.425
Oscar 19 20 Dec 11:53:50 11:57:00 17° 61° (ENE) 12:00:10 437.125/150
DUCHIFAT 1 20 Dec 11:56:48 11:59:06 14° 268° (W) 12:01:25 145.980
BUGSAT 1 20 Dec 11:57:11 11:59:49 16° 267° (W) 12:02:26 437.445
UKube-1 20 Dec 12:00:56 12:03:04 14° 298° (WNW) 12:05:11 .
CUBEBUG 2 20 Dec 12:09:52 12:12:09 14° 297° (WNW) 12:14:28 437.445
VELOX 1 20 Dec 12:21:39 12:25:03 22° 294° (WNW) 12:28:28 145.980
ZACube-1 20 Dec 12:22:08 12:24:16 13° 298° (WNW) 12:26:25 437.345
ESTCUBE 1 20 Dec 12:22:09 12:26:30 50° 288° (WNW) 12:30:50 437.505/2401.250
BEESAT 3 20 Dec 12:32:25 12:32:33 10° 107° (ESE) 12:32:41 437.485
TISAT 1 20 Dec 12:41:59 12:46:12 65° 102° (ESE) 12:50:24 437.305
SPROUT 20 Dec 12:44:10 12:48:27 65° 101° (E) 12:52:43 437.525
YUBILEINY 20 Dec 12:50:15 12:57:57 37° 275° (W) 13:05:39 435.215
RS-15 20 Dec 12:50:45 13:01:43 86° 303° (WNW) 13:12:46 29.354- 29.394
BEESAT 2 20 Dec 13:08:31 13:11:48 24° 113° (ESE) 13:15:09 435.950
CUBEBUG 1 20 Dec 13:12:18 13:15:02 17° 296° (WNW) 13:17:46 437.445
SWISSCUBE 20 Dec 13:19:47 13:23:48 26° 95° (E) 13:27:47 437.505
ITUPSAT 1 20 Dec 13:20:14 13:24:07 24° 95° (E) 13:27:57 437.325
Oscar 19 20 Dec 13:30:40 13:35:46 67° 258° (WSW) 13:40:56 437.125/150
PCSat 20 Dec 13:30:54 13:35:31 30° 109° (ESE) 13:40:09 145.827
M-CUBED/EXP-1 PRIME 20 Dec 13:39:14 13:40:53 12° 93° (E) 13:42:29 437.505
Gurwin Techsat 1B 20 Dec 13:39:36 13:44:24 36° 68° (ENE) 13:49:12 435.225
BEESAT 20 Dec 13:44:28 13:49:02 43° 99° (E) 13:53:33 436.000
ITAMSAT 1 20 Dec 13:45:44 13:50:52 66° 73° (ENE) 13:56:00 435.822/435.867
HORYU 2 20 Dec 13:47:14 13:49:43 15° 62° (ENE) 13:52:13 437.375
ISS 20 Dec 13:52:40 13:55:46 39° 138° (SE) 13:58:53 145.825
AO-7 20 Dec 13:59:54 14:05:54 23° 51° (NE) 14:11:54 29.400- 29.500
BEESAT 3 20 Dec 14:05:59 14:10:05 76° 304° (NW) 14:14:15 437.485
AIST 2 20 Dec 14:11:19 14:15:25 51° 118° (ESE) 14:19:35 435.215
TISAT 1 20 Dec 14:19:49 14:21:29 12° 298° (WNW) 14:23:09 437.305
SPROUT 20 Dec 14:22:09 14:24:00 13° 298° (WNW) 14:25:50 437.525
BEESAT 2 20 Dec 14:46:05 14:49:53 35° 310° (NW) 14:53:45 435.950
AUBIESAT-1 20 Dec 14:46:34 14:50:54 63° 106° (ESE) 14:54:49 437.475
STARS 20 Dec 14:49:22 14:53:13 28° 96° (E) 14:57:03 437.465
KKS-1 20 Dec 14:52:14 14:56:32 45° 99° (E) 15:00:50 437.445
GONETS M04 20 Dec 14:55:12 14:57:25 11° 53° (NE) 14:59:38
SWISSCUBE 20 Dec 14:57:25 15:01:40 33° 292° (WNW) 15:05:54 437.505
ITUPSAT 1 20 Dec 14:57:43 15:02:04 36° 291° (WNW) 15:06:23 437.325
RS-15 20 Dec 15:06:26 15:15:49 32° 330° (NNW) 15:25:22 29.354- 29.394
M-CUBED/EXP-1 PRIME 20 Dec 15:12:04 15:16:26 60° 292° (WNW) 15:20:24 437.505
PCSat 20 Dec 15:13:39 15:18:45 41° 307° (NW) 15:23:53 145.827
Gurwin Techsat 1B 20 Dec 15:19:47 15:24:22 29° 265° (W) 15:28:59 435.225
HORYU 2 20 Dec 15:21:30 15:25:54 59° 259° (W) 15:30:21 437.375
BEESAT 20 Dec 15:23:01 15:26:34 21° 296° (WNW) 15:30:07 436.000
ITAMSAT 1 20 Dec 15:27:52 15:30:48 15° 269° (W) 15:33:45 435.822/435.867
ISS 20 Dec 15:29:25 15:32:24 31° 336° (NNW) 15:35:24 145.825
JAS-2 20 Dec 15:37:37 15:43:59 31° 64° (ENE) 15:49:53 435.910
BEESAT 3 20 Dec 15:47:30 15:49:00 12° 323° (NW) 15:50:30 437.485
AO-7 20 Dec 15:49:17 15:57:37 90° 251° (WSW) 16:06:02 29.400- 29.500
AIST 2 20 Dec 15:51:07 15:54:19 20° 317° (NW) 15:57:34 435.215
AUBIESAT-1 20 Dec 16:23:01 16:25:14 14° 305° (NW) 16:27:22 437.475
STARS 20 Dec 16:25:52 16:29:37 27° 292° (WNW) 16:33:22 437.465
AIST 1 20 Dec 16:29:02 16:33:05 38° 92° (E) 16:37:08
KKS-1 20 Dec 16:29:47 16:32:50 18° 296° (WNW) 16:35:53 437.445
Cubesat XI-IV 20 Dec 16:41:38 16:45:08 18° 61° (ENE) 16:48:38 437.490
GONETS M04 20 Dec 16:47:54 16:56:32 58° 77° (ENE) 17:05:03
ISS 20 Dec 17:07:42 17:09:45 15° 356° (N) 17:11:48 145.825
CUTE-I 20 Dec 17:13:28 17:18:10 33° 67° (ENE) 17:22:52 437.470
JAS-2 20 Dec 17:21:09 17:28:41 57° 260° (W) 17:35:36 435.910
RS-15 20 Dec 17:25:05 17:33:04 22° 6° (N) 17:41:15 29.354- 29.394
MOZHAYETS 4 20 Dec 17:36:55 17:41:34 85° 103° (ESE) 17:46:10
AO-7 20 Dec 17:46:07 17:51:26 18° 270° (W) 17:56:48 29.400- 29.500
MaSat-1 20 Dec 18:01:09 18:02:57 18° 58° (ENE) 18:04:49 437.345
AIST 1 20 Dec 18:07:49 18:10:54 19° 289° (WNW) 18:13:59
Cubesat XI-IV 20 Dec 18:19:25 18:24:42 64° 258° (WSW) 18:30:00 437.490
PRISM 20 Dec 18:23:22 18:27:14 36° 98° (E) 18:31:02 437.425
CUSAT 1 20 Dec 18:40:57 18:42:43 11° 57° (ENE) 18:44:32 437.405
ISS 20 Dec 18:44:41 18:47:14 20° 16° (NNE) 18:49:47 145.825
GONETS M04 20 Dec 18:45:30 18:52:49 31° 277° (W) 19:00:05
CUTE-I 20 Dec 18:53:26 18:58:10 32° 264° (W) 19:02:56 437.470
CUBESAT XI-V 20 Dec 18:59:51 19:04:17 46° 99° (E) 19:08:41 437.345
STRAND 1 20 Dec 19:08:52 19:13:47 47° 99° (E) 19:18:40 437.568
MOZHAYETS 4 20 Dec 19:16:50 19:18:04 11° 300° (WNW) 19:19:18
HO-68 20 Dec 19:22:12 19:28:16 31° 60° (ENE) 19:34:20 435.675
DANDE 20 Dec 19:29:28 19:35:12 22° 66° (ENE) 19:41:27 436.750
MaSat-1 20 Dec 19:35:16 19:36:05 11° 252° (WSW) 19:36:55 437.345
RS-15 20 Dec 19:39:18 19:49:42 41° 39° (NE) 20:00:26 29.354- 29.394
DOVE 4 20 Dec 19:48:27 19:50:13 13° 62° (ENE) 19:52:00 437.250
AAUSAT CUBESAT 2 20 Dec 19:50:53 19:53:24 16° 64° (ENE) 19:55:56 437.432
PRISM 20 Dec 19:59:32 20:02:30 19° 295° (WNW) 20:05:27 437.425
CANX-2 20 Dec 20:02:58 20:06:50 35° 70° (ENE) 20:10:44 2200.000
CINEMA 3 20 Dec 20:13:10 20:15:21 14° 63° (ENE) 20:17:33 145.822/145.860
CUSAT 1 20 Dec 20:19:50 20:27:19 52° 75° (ENE) 20:35:34 437.405
ISS 20 Dec 20:20:55 20:24:12 85° 35° (NE) 20:27:28 145.825
COMPASS 1 20 Dec 20:24:34 20:28:30 39° 71° (ENE) 20:32:28 437.405
SEEDS 20 Dec 20:29:57 20:34:05 54° 73° (ENE) 20:38:16 437.485
BRITE-PL 20 Dec 20:32:03 20:36:12 73° 75° (ENE) 20:40:21 437.365/2234.400
CUTE 1.7 + AOD 2 20 Dec 20:33:21 20:37:35 70° 75° (ENE) 20:41:52 437.475
UWE-3 20 Dec 20:34:40 20:36:33 13° 62° (ENE) 20:38:27 435.000/436.395/437.385
FUNcube-1 20 Dec 20:34:55 20:35:46 11° 61° (ENE) 20:36:37 145.935
CUBESAT XI-V 20 Dec 20:38:11 20:41:23 19° 295° (WNW) 20:44:33 437.345
DELFI C3 20 Dec 20:41:35 20:44:48 23° 67° (ENE) 20:48:02 145.870
DX 1 20 Dec 20:48:13 20:51:51 27° 68° (ENE) 20:55:31 434.975-435.025
STRAND 1 20 Dec 20:48:47 20:52:39 22° 296° (WNW) 20:56:30 437.568
BEESAT 3 20 Dec 20:49:18 20:50:43 11° 37° (NE) 20:52:06 437.485
AISAT 20 Dec 20:53:09 20:54:13 11° 60° (ENE) 20:55:18 437.250
SO-50 20 Dec 20:53:45 20:57:45 32° 114° (ESE) 21:01:52 436.795
GOMX 1 20 Dec 20:58:20 21:02:29 82° 258° (WSW) 21:06:41 467.674
HUMSAT D 20 Dec 21:06:56 21:09:06 14° 63° (ENE) 21:11:17 437.325/437.525
HO-68 20 Dec 21:08:35 21:15:36 55° 259° (WSW) 21:22:39 435.675
Oscar 11 20 Dec 21:09:54 21:14:08 57° 74° (ENE) 21:18:24 145.826/435.025
DANDE 20 Dec 21:11:38 21:19:20 87° 262° (W) 21:28:04 436.750
UKube-1 20 Dec 21:18:30 21:22:44 55° 73° (ENE) 21:26:58 .
DOVE 4 20 Dec 21:23:26 21:27:29 58° 260° (W) 21:31:39 437.250
AAUSAT CUBESAT 2 20 Dec 21:24:36 21:28:40 48° 261° (W) 21:32:47 437.432
BEESAT 2 20 Dec 21:27:58 21:31:09 20° 44° (NE) 21:34:18 435.950
CUBEBUG 2 20 Dec 21:30:29 21:34:35 58° 74° (ENE) 21:38:48 437.445
CANX-2 20 Dec 21:39:39 21:42:51 21° 267° (W) 21:46:05 2200.000
ZACube-1 20 Dec 21:40:40 21:44:44 54° 73° (ENE) 21:48:55 437.345
VELOX 1 20 Dec 21:43:00 21:46:59 34° 69° (ENE) 21:50:59 145.980
ESTCUBE 1 20 Dec 21:47:14 21:50:05 17° 63° (ENE) 21:52:55 437.505/2401.250
CINEMA 3 20 Dec 21:48:02 21:52:05 53° 260° (W) 21:56:16 145.822/145.860
RS-15 20 Dec 21:51:44 22:02:56 71° 243° (WSW) 22:14:38 29.354- 29.394
ISS 20 Dec 21:59:20 22:00:18 11° 231° (SW) 22:01:17 145.825
COMPASS 1 20 Dec 22:01:31 22:04:23 18° 268° (W) 22:07:16 437.405
CUSAT 1 20 Dec 22:03:14 22:10:14 38° 270° (W) 22:17:49 437.405
UNISAT 6 20 Dec 22:06:25 22:09:04 15° 91° (E) 22:11:43 437.425
FUNcube-1 20 Dec 22:07:18 22:11:27 75° 258° (WSW) 22:15:44 145.935
SEEDS 20 Dec 22:08:15 22:10:15 13° 270° (W) 22:12:16 437.485
UWE-3 20 Dec 22:08:26 22:12:33 60° 259° (W) 22:16:48 435.000/436.395/437.385
CUTE 1.7 + AOD 2 20 Dec 22:13:29 22:13:59 10° 271° (W) 22:14:29 437.475
DELFI C3 20 Dec 22:16:17 22:19:54 30° 264° (W) 22:23:34 145.870
50 SAT 20 Dec 22:17:11 22:21:09 66° 75° (ENE) 22:25:11 437.505
PCSat 20 Dec 22:17:55 22:22:35 28° 48° (NE) 22:27:14 145.827
QB50P2 20 Dec 22:19:43 22:21:03 11° 90° (E) 22:22:23 145.880/145.840
DX 1 20 Dec 22:24:18 22:28:01 28° 264° (W) 22:31:46 434.975-435.025
BEESAT 3 20 Dec 22:25:28 22:29:39 73° 56° (NE) 22:33:46 437.485
AISAT 20 Dec 22:25:46 22:30:11 81° 257° (WSW) 22:34:38 437.250
POLYITAN 1 20 Dec 22:27:42 22:30:03 14° 91° (E) 22:32:23 437.675
NANOSAT C BR1 20 Dec 22:29:45 22:32:10 15° 92° (E) 22:34:34 145.865
CUBEBUG 1 20 Dec 22:31:34 22:35:40 42° 71° (ENE) 22:39:47 437.445
AIST 2 20 Dec 22:33:04 22:37:07 39° 51° (NE) 22:41:06 435.215
SO-50 20 Dec 22:34:08 22:38:15 32° 313° (NW) 22:42:29 436.795
ANTELSAT 20 Dec 22:37:09 22:41:20 31° 96° (E) 22:45:30 437.575/2403.000
HUMSAT D 20 Dec 22:40:25 22:44:26 53° 260° (W) 22:48:33 437.325/437.525
QB50P1 20 Dec 22:43:30 22:46:45 21° 94° (E) 22:50:00 145.935-145.965
Oscar 11 20 Dec 22:48:38 22:50:39 13° 270° (W) 22:52:41 145.826/435.025
DANDE 20 Dec 22:56:55 23:02:04 19° 277° (W) 23:07:34 436.750
UKube-1 20 Dec 22:57:05 22:59:13 13° 269° (W) 23:01:22 .
BEESAT 2 20 Dec 23:05:36 23:09:39 47° 242° (WSW) 23:13:37 435.950
CUBEBUG 2 20 Dec 23:10:13 23:11:43 12° 271° (W) 23:13:14 437.445
POPSAT HIP 1 20 Dec 23:11:36 23:15:40 42° 99° (E) 23:19:44 437.405
TIGRISAT 20 Dec 23:12:13 23:16:55 69° 102° (ESE) 23:21:37 435.000
ZACube-1 20 Dec 23:19:40 23:21:30 13° 270° (W) 23:23:21 437.345
VELOX 1 20 Dec 23:20:11 23:23:38 22° 266° (W) 23:27:06 145.980
ESTCUBE 1 20 Dec 23:22:06 23:26:32 52° 260° (W) 23:30:58 437.505/2401.250
TISAT 1 20 Dec 23:34:56 23:39:00 50° 73° (ENE) 23:43:05 437.305
BUGSAT 1 20 Dec 23:37:36 23:41:39 67° 102° (ESE) 23:45:42 437.445
SPROUT 20 Dec 23:38:47 23:42:55 51° 73° (ENE) 23:47:05 437.525
DUCHIFAT 1 20 Dec 23:39:23 23:43:40 88° 103° (ESE) 23:47:56 145.980
UNISAT 6 20 Dec 23:41:34 23:46:12 59° 287° (WNW) 23:50:50 437.425
O/OREOS (USA 219) 20 Dec 23:50:26 23:51:59 12° 98° (E) 23:53:33 437.305
QB50P2 20 Dec 23:53:09 23:57:22 63° 286° (WNW) 00:01:36 145.880/145.840
YUBILEINY 20 Dec 23:54:06 00:02:31 55° 90° (E) 00:10:55 435.215
PCSat 21 Dec 00:01:01 00:06:11 46° 247° (WSW) 00:11:19 145.827
POLYITAN 1 21 Dec 00:02:07 00:06:16 50° 287° (WNW) 00:10:26 437.675
AUBIESAT-1 21 Dec 00:03:20 00:05:32 13° 55° (NE) 00:07:43 437.475
NANOSAT C BR1 21 Dec 00:04:11 00:08:18 48° 288° (WNW) 00:12:24 145.865
BEESAT 3 21 Dec 00:06:18 00:07:12 11° 253° (WSW) 00:08:06 437.485
RS-15 21 Dec 00:07:27 00:13:15 16° 263° (W) 00:19:11 29.354- 29.394
CUBEBUG 1 21 Dec 00:09:16 00:12:13 18° 267° (W) 00:15:11 437.445
AIST 2 21 Dec 00:12:11 00:15:30 22° 248° (WSW) 00:18:47 435.215
ANTELSAT 21 Dec 00:13:59 00:18:02 29° 292° (WNW) 00:22:04 437.575/2403.000
QB50P1 21 Dec 00:18:51 00:22:42 34° 290° (WNW) 00:26:32 145.935-145.965
SWISSCUBE 21 Dec 00:26:51 00:31:06 33° 68° (ENE) 00:35:22 437.505
M-CUBED/EXP-1 PRIME 21 Dec 00:27:13 00:31:01 23° 60° (ENE) 00:34:50 437.505
ITUPSAT 1 21 Dec 00:27:31 00:31:41 30° 67° (ENE) 00:35:52 437.325
POPSAT HIP 1 21 Dec 00:48:23 00:51:14 18° 295° (WNW) 00:54:06 437.405
TIGRISAT 21 Dec 00:50:41 00:53:05 14° 298° (WNW) 00:55:31 435.000
BEESAT 21 Dec 00:51:20 00:55:58 52° 72° (ENE) 01:00:38 436.000
TISAT 1 21 Dec 01:12:59 01:15:07 14° 269° (W) 01:17:16 437.305
BUGSAT 1 21 Dec 01:15:32 01:16:36 11° 298° (WNW) 01:17:40 437.445
SPROUT 21 Dec 01:17:05 01:19:19 14° 269° (W) 01:21:33 437.525
O/OREOS (USA 219) 21 Dec 01:26:21 01:30:46 65° 294° (WNW) 01:35:14 437.305
AUBIESAT-1 21 Dec 01:34:54 01:39:44 89° 71° (ENE) 01:44:39 437.475
Oscar 19 21 Dec 01:41:59 01:46:56 42° 98° (E) 01:51:50 437.125/150
STARS 21 Dec 01:47:14 01:50:53 27° 68° (ENE) 01:54:34 437.465
KKS-1 21 Dec 01:50:56 01:55:07 43° 71° (ENE) 01:59:19 437.445
YUBILEINY 21 Dec 01:52:00 01:59:40 33° 290° (WNW) 02:07:22 435.215
Gurwin Techsat 1B 21 Dec 01:56:58 01:59:29 13° 89° (E) 02:01:59 435.225
ITAMSAT 1 21 Dec 01:58:59 02:03:01 23° 94° (E) 02:07:01 435.822/435.867
M-CUBED/EXP-1 PRIME 21 Dec 02:01:01 02:05:40 47° 256° (WSW) 02:10:26 437.505
SWISSCUBE 21 Dec 02:04:53 02:08:57 27° 264° (W) 02:13:03 437.505
ITUPSAT 1 21 Dec 02:05:19 02:09:31 30° 264° (W) 02:13:44 437.325
BEESAT 21 Dec 02:31:02 02:34:07 17° 268° (W) 02:37:12 436.000
AIST 1 21 Dec 02:38:52 02:39:18 10° 67° (ENE) 02:39:43
